User: anonymous   Login
Location: ???????
(54.9996°N, 37.9529°E)
Time: 22:34:23
(UTC+00:00)
Language:

Cosmos 1461 - Orbit

View from above orbital plane
View from above orbital plane
View from above satellite
View from above satellite

Ground track
Ground track

The orbit data is extracted from the following two-line orbital elements,

1 14064U 83044A   24170.55672573  .00009669  00000-0  60133-3 0  9994
2 14064  64.9970 252.7614 0058830 112.8851 247.8498 15.08648511106142
Epoch (UTC): 18 June 2024 13:21:41
Eccentricity: 0.0058830
inclination: 64.9970°
perigee height: 499 km
apogee height: 581 km
right ascension of ascending node: 252.7614°
argument of perigee: 112.8851°
revolutions per day: 15.08648511
mean anomaly at epoch: 247.8498°
orbit number at epoch: 10614

The dashed part of the orbit path shows where the satellite is in the earth's shadow,  

DLR